• Join FlightAware (Why Join?)
  • Login
  • US Flag GB Flag 
02:25 EST


 

Airport Tracker/Info


-or-


 

Live Flight TrackerFlight Track Log ✈ SWA525 ✈ 07-May-2013 ✈ KMCO - KSTL

Flight Track Log - Related Links

Times and Time Zones

All times are in EDT time to prevent confusion due to time zone crossing. See the SWA525 flight status page for this flight to view local times or setup timezone preferences in your user account.

Time Position Orientation Groundspeed Altitude Reporting Facility
EDT Latitude Longitude Course Direction KTS MPH feet Rate Location/Type
20:06 28.3667 -81.3167 204° Southwest 196 226 2,000  Level Orlando TRACON
20:07 28.3167 -81.3500 210° Southwest 216 249 4,300 2,820 Climbing Orlando TRACON
20:08 28.3167 -81.4167 270° West 219 252 7,700 2,460 Climbing Orlando TRACON
20:10 28.3139 -81.5464 269° West 258 297 11,200 2,340 Climbing Jacksonville Center
20:11 28.3339 -81.6450 283° West 297 342 14,200 2,760 Climbing Jacksonville Center
20:12 28.3514 -81.7486 281° West 327 376 16,800 2,580 Climbing Jacksonville Center
20:13 28.3753 -81.8592 284° West 347 399 19,400 2,400 Climbing Jacksonville Center
20:14 28.3969 -81.9700 283° West 360 414 21,600 2,160 Climbing Jacksonville Center
20:15 28.4208 -82.0853 283° West 366 421 23,800 2,040 Climbing Jacksonville Center
20:16 28.4444 -82.2031 283° West 372 428 25,700 1,740 Climbing Jacksonville Center
20:17 28.4681 -82.3233 283° West 377 434 27,300 1,560 Climbing Jacksonville Center
20:18 28.5433 -82.4081 315° West 377 434 28,900 1,500 Climbing Jacksonville Center
20:19 28.6417 -82.4786 328° Northwest 377 434 30,300 1,500 Climbing Jacksonville Center
20:20 28.7358 -82.5469 328° Northwest 393 452 32,000 1,500 Climbing Jacksonville Center
20:21 28.8300 -82.6178 327° Northwest 405 466 33,300 1,320 Climbing Jacksonville Center
20:22 28.9261 -82.6861 328° Northwest 405 466 34,700 1,260 Climbing Jacksonville Center
20:23 29.0181 -82.7547 327° Northwest 398 458 35,900 600 Climbing Jacksonville Center
20:24 29.1119 -82.8261 326° Northwest 398 458 36,000  Climbing Jacksonville Center
20:25 29.2061 -82.8950 327° Northwest 398 458 36,000  Level Jacksonville Center
20:26 29.2978 -82.9639 327° Northwest 398 458 36,000  Level Jacksonville Center
20:27 29.3917 -83.0331 327° Northwest 392 451 36,000  Level Jacksonville Center
20:28 29.4833 -83.1050 326° Northwest 392 451 36,000  Level Jacksonville Center
20:29 29.5794 -83.1767 327° Northwest 400 460 36,000  Level Jacksonville Center
20:30 29.6689 -83.2439 327° Northwest 392 451 36,000  Level Jacksonville Center
20:31 29.7689 -83.3186 327° Northwest 392 451 36,000  Level Jacksonville Center
20:32 29.8625 -83.3883 327° Northwest 392 451 36,000  Level Jacksonville Center
20:33 29.9542 -83.4583 327° Northwest 392 451 36,000  Level Jacksonville Center
20:34 30.0478 -83.5283 327° Northwest 392 451 36,000  Level Jacksonville Center
20:35 30.1414 -83.6011 326° Northwest 397 457 36,000  Level Jacksonville Center
20:36 30.2350 -83.6717 327° Northwest 397 457 36,000  Level Jacksonville Center
20:37 30.3306 -83.7444 327° Northwest 397 457 36,000 -60 Level Jacksonville Center
20:38 30.4239 -83.8153 327° Northwest 397 457 35,900  Descending Jacksonville Center
20:39 30.5194 -83.8886 327° Northwest 397 457 36,000  Climbing Jacksonville Center
20:40 30.6003 -83.9544 325° Northwest 390 449 36,000  Level Jacksonville Center
20:41 30.6936 -84.0231 328° Northwest 395 455 36,000  Level Jacksonville Center
20:42 30.7869 -84.0969 326° Northwest 403 464 36,000  Level Jacksonville Center
20:43 30.8803 -84.1706 326° Northwest 403 464 36,000  Level Jacksonville Center
20:44 30.9733 -84.2447 326° Northwest 403 464 36,000  Level Jacksonville Center
20:45 31.0667 -84.3139 328° Northwest 397 457 36,000  Level Jacksonville Center
20:46 31.1597 -84.3906 325° Northwest 397 457 36,000  Level Jacksonville Center
20:47 31.2547 -84.4625 327° Northwest 397 457 36,000  Level Jacksonville Center
20:48 31.3478 -84.5369 326° Northwest 397 457 36,000  Level Jacksonville Center
20:50 31.5569 -84.7017 326° Northwest 403 464 36,000  Level Atlanta Center
20:51 31.6483 -84.7756 325° Northwest 403 464 36,000  Level Atlanta Center
20:52 31.7439 -84.8497 327° Northwest 403 464 36,000  Level Atlanta Center
20:53 31.8375 -84.9239 326° Northwest 403 464 36,000  Level Atlanta Center
20:54 31.9286 -84.9981 325° Northwest 403 464 36,000  Level Atlanta Center
20:55 32.0219 -85.0725 326° Northwest 403 464 36,000  Level Atlanta Center
20:56 32.0967 -85.1322 326° Northwest 403 464 36,000  Level Atlanta Center
20:57 32.2086 -85.2197 327° Northwest 403 464 36,000  Level Atlanta Center
20:58 32.3017 -85.2919 327° Northwest 403 464 36,000  Level Atlanta Center
20:59 32.3950 -85.3647 327° Northwest 398 458 36,000  Level Atlanta Center
21:00 32.4858 -85.4400 325° Northwest 398 458 36,000  Level Atlanta Center
21:01 32.5769 -85.5153 325° Northwest 398 458 36,000  Level Atlanta Center
21:02 32.6700 -85.5883 327° Northwest 398 458 36,000  Level Atlanta Center
21:03 32.7608 -85.6642 325° Northwest 398 458 36,000  Level Atlanta Center
21:04 32.8536 -85.7400 326° Northwest 398 458 36,000  Level Atlanta Center
21:05 32.9422 -85.8161 324° Northwest 398 458 36,000  Level Atlanta Center
21:06 33.0331 -85.8922 325° Northwest 398 458 36,000  Level Atlanta Center
21:07 33.1239 -85.9586 329° Northwest 398 458 36,000  Level Atlanta Center
21:08 33.2167 -86.0378 324° Northwest 398 458 36,000  Level Atlanta Center
21:09 33.3069 -86.1192 323° Northwest 398 458 36,000  Level Atlanta Center
21:10 33.3978 -86.1861 328° Northwest 398 458 36,000  Level Atlanta Center
21:11 33.4881 -86.2656 324° Northwest 398 458 36,000  Level Atlanta Center
21:12 33.5603 -86.3247 326° Northwest 398 458 36,000  Level Atlanta Center
21:13 33.6525 -86.4044 324° Northwest 387 445 36,000  Level Atlanta Center
21:14 33.7431 -86.4794 325° Northwest 387 445 36,000  Level Atlanta Center
21:15 33.8292 -86.5519 325° Northwest 387 445 36,000  Level Atlanta Center
21:16 33.9153 -86.6272 324° Northwest 387 445 36,000  Level Atlanta Center
21:17 34.0014 -86.6997 325° Northwest 387 445 36,000  Level Atlanta Center
21:18 34.0875 -86.7728 325° Northwest 382 440 36,000  Level Atlanta Center
21:20 34.2331 -86.9028 324° Northwest 380 437 36,000  Level Memphis Center
21:21 34.3208 -86.9797 324° Northwest 388 447 36,000  Level Memphis Center
21:22 34.3997 -87.0472 325° Northwest 393 452 36,000  Level Memphis Center
21:23 34.4872 -87.1167 327° Northwest 393 452 36,000  Level Memphis Center
21:24 34.5767 -87.1942 325° Northwest 395 455 36,000  Level Memphis Center
21:25 34.6686 -87.2714 325° Northwest 390 449 36,000  Level Memphis Center
21:26 34.7561 -87.3517 323° Northwest 390 449 36,000  Level Memphis Center
21:27 34.8453 -87.4269 325° Northwest 390 449 36,000  Level Memphis Center
21:28 34.9433 -87.5147 324° Northwest 390 449 36,000  Level Memphis Center
21:29 35.0347 -87.5903 326° Northwest 390 449 36,000  Level Memphis Center
21:30 35.1219 -87.6686 324° Northwest 395 455 36,000  Level Memphis Center
21:31 35.2133 -87.7444 326° Northwest 389 448 36,000  Level Memphis Center
21:32 35.3006 -87.8206 325° Northwest 389 448 36,000  Level Memphis Center
21:33 35.3875 -87.8994 324° Northwest 389 448 36,000  Level Memphis Center
21:34 35.4725 -87.9783 323° Northwest 389 448 36,000  Level Memphis Center
21:35 35.5617 -88.0575 324° Northwest 394 453 36,000  Level Memphis Center
21:36 35.6400 -88.1269 324° Northwest 388 447 36,000  Level Memphis Center
21:37 35.7375 -88.2036 327° Northwest 388 447 36,000  Level Memphis Center
21:38 35.8242 -88.2833 323° Northwest 388 447 36,000  Level Memphis Center
21:39 35.9131 -88.3603 325° Northwest 388 447 36,000 -60 Level Memphis Center
21:40 35.9997 -88.4403 323° Northwest 388 447 35,900 -540 Descending Memphis Center
21:41 36.0886 -88.5231 323° Northwest 393 452 35,000 -480 Descending Memphis Center
21:42 36.1794 -88.6033 325° Northwest 393 452 35,000  Level Memphis Center
21:43 36.2681 -88.6839 324° Northwest 393 452 35,000  Level Memphis Center
21:44 36.3589 -88.7694 323° Northwest 393 452 35,000  Level Memphis Center
21:45 36.4497 -88.8503 324° Northwest 398 458 35,000  Level Memphis Center
21:46 36.5339 -88.9261 324° Northwest 408 470 35,000  Level Memphis Center
21:47 36.6408 -88.9811 338° Northwest 408 470 35,000 -120 Level Memphis Center
21:48 36.7497 -89.0208 344° North 408 470 34,800 -600 Descending Memphis Center
21:49 36.8564 -89.0708 339° North 408 470 33,800 -1,020 Descending Memphis Center
21:50 36.9367 -89.1758 314° West 402 463 32,800 -1,020 Descending Memphis Center
21:52 37.1219 -89.4281 313° West 416 479 30,400 -1,740 Descending Kansas City Center
21:53 37.2003 -89.5353 313° West 417 480 26,800 -2,160 Descending Kansas City Center
21:54 37.2978 -89.6117 328° Northwest 416 479 26,000 -420 Descending Kansas City Center
21:55 37.4281 -89.6819 337° Northwest 422 486 26,000  Level Kansas City Center
21:56 37.5356 -89.7419 336° Northwest 422 486 26,000 -540 Level Kansas City Center
21:57 37.6269 -89.7911 337° Northwest 417 480 24,900 -1,800 Descending Kansas City Center
21:58 37.7264 -89.8453 337° Northwest 396 456 22,400 -2,640 Descending Kansas City Center
21:59 37.8389 -89.9086 336° Northwest 374 430 19,600 -2,460 Descending Kansas City Center
22:00 37.9333 -89.9581 338° Northwest 354 407 17,400 -2,220 Descending Kansas City Center
22:01 38.0178 -90.0053 336° Northwest 335 386 15,100 -2,160 Descending Kansas City Center
22:02 38.0961 -90.0503 336° Northwest 326 375 13,000 -2,040 Descending Kansas City Center
22:03 38.1800 -90.0753 347° North 318 366 11,000 -1,440 Descending Kansas City Center
22:04 38.2597 -90.0833 355° North 297 342 10,100 -960 Descending Kansas City Center
22:05 38.3275 -90.0914 355° North 255 293 9,100 -1,080 Descending Kansas City Center
22:06 38.4050 -90.0997 355° North 242 278 8,000 -1,320 Descending Kansas City Center
22:07 38.4722 -90.1072 355° North 237 273 6,400 -1,680 Descending Kansas City Center
22:08 38.5347 -90.1419 337° Northwest 244 281 4,600 -1,200 Descending Kansas City Center
22:09 38.5925 -90.1839 330° Northwest 243 280 4,000 -600 Descending Kansas City Center
22:10 38.6350 -90.2136 331° Northwest 201 231 3,400 -900 Descending Kansas City Center
22:11 38.6769 -90.2422 332° Northwest 180 207 2,200 -900 Descending Kansas City Center
22:13 38.7094 -90.2797 318° Northwest 174 200 1,600 -600 Descending Kansas City Center
22:14 38.7303 -90.3203 303° West 151 174 1,000 -480 Descending Kansas City Center
22:15 38.7550 -90.3694 303° West 146 168 700 -300 Descending Kansas City Center
22:17 38.7487 -90.3700 90° East  Level Estimated